This demonstration page uses our WeatherBlox Daily Observations layout. Learn more.

Hourly Observations for September 16, 2015

Temp ( °F °C ) Dew Point ( °F °C ) Humidity (%) Winds ( mph kmh ) Pressure ( in mb ) Visibility ( mi km ) Precip ( " mm )
12:15 am 00:15 Partly Cloudy 74 23.1 53 11.6 48 48 SSW 8 13 29.8 1009 10 16.0934 0 0
12:35 am 00:35 Mostly Cloudy with Light Thunderstorms 73 22.6 55 13 55 55 SSW 14 22 29.83 1010 10 16.0934 0.01 0.254
12:55 am 00:55 Mostly Cloudy 70 21.2 57 13.9 63 63 S 14 22 29.83 1010 7 11.26538 0.15 3.81
1:15 am 01:15 Mostly Cloudy with Light Rain 69 20.8 58 14.3 66 66 S 14 22 29.83 1010 10 16.0934 0.01 0.254
1:35 am 01:35 Partly Cloudy 69 20.8 58 14.3 66 66 SSE 16 26 29.8 1009 10 16.0934 0.01 0.254
1:55 am 01:55 Partly Cloudy with Thunderstorms 70 20.9 58 14.2 66 66 S 9 15 29.83 1010 10 16.0934 0.01 0.254
2:15 am 02:15 Mostly Cloudy 70 21.1 57 13.8 63 63 SSW 6 9 29.85 1011 10 16.0934 0 0
2:35 am 02:35 Mostly Cloudy with Light Thunderstorms 68 20.2 59 15 72 72 SSE 13 20 29.83 1010 10 16.0934 0 0
2:55 am 02:55 Partly Cloudy 69 20.3 59 14.9 71 71 SSE 15 24 29.8 1009 10 16.0934 0 0
3:15 am 03:15 Clear with Nearby Thunderstorms 68 20.1 59 15.2 74 74 SE 17 28 29.8 1009 10 16.0934 0 0
3:35 am 03:35 Partly Cloudy with Nearby Thunderstorms 67 19.6 60 15.4 77 77 SE 15 24 29.8 1009 10 16.0934 0 0
3:55 am 03:55 Clear 68 20 59 15 73 73 SE 16 26 29.8 1009 10 16.0934 0 0
4:15 am 04:15 Clear 67 19.6 59 15 75 75 SE 12 19 29.8 1009 10 16.0934 0 0
4:35 am 04:35 Clear 67 19.3 59 15.2 77 77 SE 12 19 29.8 1009 10 16.0934 0 0
4:55 am 04:55 Clear 66 19 60 15.5 80 80 SE 14 22 29.8 1009 10 16.0934 0 0
5:15 am 05:15 Clear 65 18.6 61 15.9 84 84 ESE 13 20 29.8 1009 10 16.0934 0 0
5:35 am 05:35 Clear 65 18.5 61 16.2 87 87 ESE 12 19 29.8 1009 10 16.0934 0 0
5:55 am 05:55 Clear 65 18.5 62 16.4 88 88 SE 10 17 29.8 1009 10 16.0934 0 0
6:15 am 06:15 Clear 65 18.6 62 16.6 88 88 SE 14 22 29.8 1009 10 16.0934 0 0
6:35 am 06:35 Clear 65 18.5 62 16.7 89 89 SE 15 24 29.77 1008 10 16.0934 0 0
6:55 am 06:55 Clear 65 18.5 62 16.7 89 89 SSE 12 19 29.8 1009 10 16.0934 0 0
7:15 am 07:15 Clear 65 18.5 62 16.7 89 89 SE 10 17 29.8 1009 10 16.0934 0 0
7:35 am 07:35 Sunny 65 18.3 62 16.5 89 89 SSE 7 11 29.83 1010 10 16.0934 0 0
7:55 am 07:55 Sunny 65 18.6 62 16.7 89 89 SSE 8 13 29.8 1009 10 16.0934 0 0
8:15 am 08:15 Sunny 66 19.1 63 17 88 88 SSE 8 13 29.8 1009 10 16.0934 0 0
8:35 am 08:35 Sunny 68 20 63 17.3 85 85 SSE 9 15 29.8 1009 10 16.0934 0 0
8:55 am 08:55 Sunny 69 20.8 64 17.5 82 82 SSE 12 19 29.8 1009 10 16.0934 0 0
9:15 am 09:15 Sunny 71 21.5 64 17.6 79 79 S 12 19 29.77 1008 10 16.0934 0 0
9:35 am 09:35 Sunny 73 22.5 64 17.8 75 75 S 20 31 29.74 1007 10 16.0934 0 0
9:55 am 09:55 Sunny 73 23 64 17.5 71 71 S 17 28 29.74 1007 10 16.0934 0 0
10:15 am 10:15 Sunny 75 23.9 64 17.5 68 68 S 20 31 29.74 1007 10 16.0934 0 0
10:35 am 10:35 Sunny 76 24.5 63 17.1 63 63 S 20 31 29.74 1007 10 16.0934 0 0
10:55 am 10:55 Sunny 77 24.8 63 17.3 63 63 S 22 35 29.74 1007 10 16.0934 0 0
11:15 am 11:15 Sunny 77 25 63 17.1 62 62 SSE 18 30 29.74 1007 10 16.0934 0 0
11:35 am 11:35 Sunny 78 25.3 62 16.6 59 59 S 17 28 29.68 1005 10 16.0934 0 0
11:55 am 11:55 Sunny 79 26.1 62 16.8 57 57 S 16 26 29.68 1005 10 16.0934 0 0
12:15 pm 12:15 Sunny 80 26.5 62 16.9 56 56 S 17 28 29.68 1005 10 16.0934 0 0
12:35 pm 12:35 Sunny 81 27.4 62 16.7 52 52 S 20 31 29.68 1005 10 16.0934 0 0
12:55 pm 12:55 Sunny 82 27.9 62 16.6 50 50 S 18 30 29.68 1005 10 16.0934 0 0
1:15 pm 13:15 Sunny 84 28.8 62 16.4 47 47 SSE 18 30 29.65 1004 10 16.0934 0 0
1:35 pm 13:35 Sunny 85 29.6 60 15.3 42 42 S 14 22 29.62 1003 10 16.0934 0 0
1:55 pm 13:55 Sunny 87 30.4 60 15.3 40 40 S 18 30 29.62 1003 10 16.0934 0 0
2:15 pm 14:15 Sunny 88 31.1 58 14.7 37 37 S 18 30 29.62 1003 10 16.0934 0 0
2:35 pm 14:35 Sunny 89 31.6 58 14.6 36 36 S 21 33 29.62 1003 10 16.0934 0 0
2:55 pm 14:55 Sunny 89 31.5 60 15.5 38 38 S 21 33 29.62 1003 10 16.0934 0 0
3:15 pm 15:15 Sunny 89 31.9 59 15.2 36 36 SSE 22 35 29.62 1003 10 16.0934 0 0
3:35 pm 15:35 Sunny 89 31.8 58 14.7 35 35 S 24 39 29.62 1003 10 16.0934 0 0
3:55 pm 15:55 Sunny 90 32.4 58 14.5 34 34 SSE 20 31 29.62 1003 10 16.0934 0 0
4:15 pm 16:15 Sunny 91 33 57 14.1 32 32 S 18 30 29.59 1002 10 16.0934 0 0
4:35 pm 16:35 Sunny 91 33 58 14.2 32 32 SSE 17 28 29.56 1001 10 16.0934 0 0
4:55 pm 16:55 Sunny 91 33 57 14 32 32 SSE 21 33 29.56 1001 10 16.0934 0 0
5:15 pm 17:15 Sunny 90 32.2 57 13.9 33 33 SSE 21 33 29.56 1001 10 16.0934 0 0
5:35 pm 17:35 Sunny 91 32.5 58 14.2 33 33 SSE 16 26 29.56 1001 10 16.0934 0 0
5:55 pm 17:55 Sunny 90 32.1 57 13.7 33 33 SSE 16 26 29.56 1001 10 16.0934 0 0
6:15 pm 18:15 Partly Cloudy 89 31.6 57 14 34 34 SSE 13 20 29.56 1001 10 16.0934 0 0
6:35 pm 18:35 Partly Cloudy 90 32.2 57 13.8 33 33 SSE 18 30 29.53 1000 10 16.0934 0 0
6:55 pm 18:55 Sunny 89 31.9 57 14.1 34 34 SSE 16 26 29.53 1000 10 16.0934 0 0
7:15 pm 19:15 Sunny 89 31.5 57 13.7 34 34 SSE 14 22 29.53 1000 10 16.0934 0 0
7:35 pm 19:35 Partly Cloudy 87 30.5 57 14.1 37 37 SSE 14 22 29.56 1001 10 16.0934 0 0
7:55 pm 19:55 Partly Cloudy 85 29.5 58 14.5 40 40 SSE 12 19 29.59 1002 10 16.0934 0 0
8:15 pm 20:15 Clear 83 28.1 59 15 45 45 SE 12 19 29.56 1001 10 16.0934 0 0
8:35 pm 20:35 Clear 83 28.2 61 15.9 47 47 SSE 15 24 29.62 1003 10 16.0934 0 0
8:55 pm 20:55 Clear 83 28.5 61 16.2 47 47 SSE 13 20 29.59 1002 10 16.0934 0 0
9:15 pm 21:15 Clear 83 28.2 62 16.5 49 49 SSE 17 28 29.62 1003 10 16.0934 0 0
9:35 pm 21:35 Clear 83 28.5 62 16.6 49 49 SSE 18 30 29.59 1002 10 16.0934 0 0
9:55 pm 21:55 Clear 82 28 62 16.6 50 50 SSE 21 33 29.62 1003 10 16.0934 0 0
10:15 pm 22:15 Clear 82 27.6 62 16.8 52 52 SSE 17 28 29.62 1003 10 16.0934 0 0
10:35 pm 22:35 Clear 81 27.3 62 16.7 52 52 SSE 16 26 29.62 1003 10 16.0934 0 0
10:55 pm 22:55 Clear 81 27.3 62 16.7 52 52 SSE 18 30 29.62 1003 10 16.0934 0 0
11:15 pm 23:15 Clear 81 27.2 62 16.5 52 52 S 17 28 29.65 1004 10 16.0934 0 0
11:35 pm 23:35 Clear 80 26.8 62 16.5 53 53 S 14 22 29.65 1004 10 16.0934 0 0
11:55 pm 23:55 Clear 80 26.6 61 16.3 53 53 S 14 22 29.65 1004 10 16.0934 0 0

Powered by AerisWeather